GW5319 Weather Reports


Display with metric or nautical units.
time (UTC)temp
F
wind
direction
speed
MPH
gust
MPH
rain 1hr
in
rain 24hr
in
rain mn
in
humidity
%
barometer
mb
20260906003117 66 0 0.0 0.0 0.00 0.00 0.00 70 1023.4
20260906001603 67 0 0.0 0.0 0.00 0.00 0.00 69 1023.5
20260906000111 68 0 0.0 0.0 0.00 0.00 0.00 68 1023.5
20260905234615 68 0 0.0 0.0 0.00 0.00 0.00 67 1023.5
20260905233104 70 0 0.0 3.0 0.00 0.00 0.00 64 1023.5
20260905231559 70 0 0.0 3.0 0.00 0.00 0.00 64 1023.5
20260905230109 70 307 0.0 2.0 0.00 0.00 0.00 64 1023.3
20260905224608 70 0 0.0 1.0 0.00 0.00 0.00 64 1023.1
20260905223100 69 0 1.0 4.0 0.00 0.00 0.00 65 1023.1
20260905221615 68 0 0.0 1.0 0.00 0.00 0.00 69 1023.1
20260905220121 67 0 0.0 0.0 0.00 0.00 0.00 70 1023.0
20260905214600 67 0 0.0 0.0 0.00 0.00 0.00 70 1022.9
20260905213104 67 0 0.0 0.0 0.00 0.00 0.00 71 1022.7
20260905211609 67 0 0.0 0.0 0.00 0.00 0.00 70 1022.6
20260905210104 68 0 0.0 0.0 0.00 0.00 0.00 69 1022.4
20260905204600 68 0 0.0 0.0 0.00 0.00 0.00 67 1022.4
20260905203101 69 0 0.0 0.0 0.00 0.00 0.00 66 1022.2
20260905201603 69 0 0.0 0.0 0.00 0.00 0.00 65 1022.1
20260905194558 71 0 0.0 0.0 0.00 0.00 0.00 61 1021.6
20260905193104 71 0 0.0 0.0 0.00 0.00 0.00 61 1021.4
20260905191604 72 0 0.0 0.0 0.00 0.00 0.00 59 1021.2
20260905190113 72 0 0.0 0.0 0.00 0.00 0.00 58 1021.0
20260905184604 72 0 0.0 0.0 0.00 0.00 0.00 57 1020.8
20260905183125 73 0 0.0 0.0 0.00 0.00 0.00 56 1020.6
20260905181605 74 0 0.0 3.0 0.00 0.00 0.00 56 1020.4
20260905174555 75 337 0.0 5.0 0.00 0.00 0.00 54 1020.1
20260905173103 75 11 1.0 8.0 0.00 0.00 0.00 53 1019.9
20260905171605 76 343 2.0 13.0 0.00 0.00 0.00 52 1019.9
20260905164604 76 20 4.0 10.0 0.00 0.00 0.00 51 1019.5
20260905163055 77 24 5.0 12.0 0.00 0.00 0.00 50 1019.4
20260905161601 78 58 8.0 17.0 0.00 0.00 0.00 49 1019.4
20260905160122 79 350 6.0 10.0 0.00 0.00 0.00 47 1019.5
20260905154556 79 338 6.0 13.0 0.00 0.00 0.00 46 1019.4
20260905153112 80 8 6.0 13.0 0.00 0.00 0.00 45 1019.4
20260905151609 81 350 5.0 13.0 0.00 0.00 0.00 43 1019.3
20260905150057 82 0 7.0 13.0 0.00 0.00 0.00 42 1019.0
20260905144602 83 34 11.0 18.0 0.00 0.00 0.00 41 1019.0
20260905143100 83 8 5.0 14.0 0.00 0.00 0.00 43 1018.8
20260905141601 84 11 8.0 15.0 0.00 0.00 0.00 42 1018.8
20260905140108 84 314 5.0 15.0 0.00 0.00 0.00 41 1018.8
20260905134601 85 20 3.0 13.0 0.00 0.00 0.00 41 1018.8
20260905133107 85 342 7.0 14.0 0.00 0.00 0.00 41 1018.7
20260905131608 85 5 9.0 16.0 0.00 0.00 0.00 41 1018.6
20260905130110 85 333 6.0 15.0 0.00 0.00 0.00 41 1018.5
20260905124603 85 330 6.0 15.0 0.00 0.00 0.00 41 1018.7
20260905123058 84 337 9.0 18.0 0.00 0.00 0.00 40 1018.7
20260905121603 84 354 9.0 20.0 0.00 0.00 0.00 40 1018.8
20260905120113 84 19 10.0 17.0 0.00 0.00 0.00 41 1018.8
20260905114558 84 342 9.0 20.0 0.00 0.00 0.00 42 1018.9
20260905113056 84 29 8.0 21.0 0.00 0.00 0.00 43 1018.8
20260905111613 83 14 8.0 16.0 0.00 0.00 0.00 44 1018.7
20260905110101 82 20 12.0 22.0 0.00 0.00 0.00 44 1018.6
20260905104601 82 343 13.0 24.0 0.00 0.00 0.00 45 1018.6
20260905103102 83 3 12.0 30.0 0.00 0.00 0.00 44 1018.6
20260905101606 84 4 11.0 24.0 0.00 0.00 0.00 46 1018.1
20260905094558 88 1 9.0 21.0 0.00 0.00 0.00 47 1017.5
20260905093055 87 347 9.0 15.0 0.00 0.00 0.00 47 1017.2
20260905091606 87 11 6.0 14.0 0.00 0.00 0.00 47 1017.1
20260905090104 87 325 1.0 8.0 0.00 0.00 0.00 48 1017.0
20260905084618 85 314 4.0 10.0 0.00 0.00 0.00 49 1017.0
20260905083100 84 19 5.0 13.0 0.00 0.00 0.00 49 1016.9
20260905081559 84 338 3.0 9.0 0.00 0.00 0.00 50 1016.5
20260905074605 82 273 0.0 13.0 0.00 0.00 0.00 49 1016.5
20260905073103 81 309 6.0 12.0 0.00 0.00 0.00 49 1016.5
20260905071600 81 330 3.0 8.0 0.00 0.00 0.00 49 1016.4
20260905070105 80 322 3.0 11.0 0.00 0.00 0.00 50 1015.9
20260905064559 76 328 2.0 5.0 0.00 0.00 0.00 57 1016.2
20260905063058 74 0 1.0 3.0 0.00 0.00 0.00 60 1016.3
20260905061606 72 0 0.0 1.0 0.00 0.00 0.00 66 1016.2
20260905060100 70 351 0.0 0.0 0.00 0.00 0.00 68 1016.0
20260905054603 68 0 0.0 0.0 0.00 0.00 0.00 71 1016.1
20260905053142 65 0 0.0 3.0 0.00 0.00 0.00 73 1016.0
20260905051607 65 0 0.0 1.0 0.00 0.00 0.00 71 1016.0
20260905050106 65 0 0.0 0.0 0.00 0.00 0.00 74 1015.7
20260905044603 63 0 0.0 0.0 0.00 0.00 0.00 76 1015.5
20260905043103 62 0 0.0 0.0 0.00 0.00 0.00 76 1015.5
20260905041559 62 0 0.0 0.0 0.00 0.00 0.00 76 1015.4
20260905040105 62 0 0.0 0.0 0.00 0.00 0.00 76 1015.3
20260905034602 59 167 0.0 0.0 0.00 0.00 0.00 82 1015.0
20260905033106 59 0 0.0 0.0 0.00 0.00 0.00 81 1015.0
20260905031603 59 0 0.0 0.0 0.00 0.00 0.00 80 1015.0
20260905024623 61 0 0.0 0.0 0.00 0.00 0.00 77 1015.3
20260905023124 63 0 0.0 0.0 0.00 0.00 0.00 75 1015.3
20260905021609 61 0 0.0 0.0 0.00 0.00 0.00 78 1015.3
20260905020111 61 0 0.0 0.0 0.00 0.00 0.00 78 1015.3
20260905014617 61 0 0.0 0.0 0.00 0.00 0.00 77 1015.2
20260905013112 62 0 0.0 0.0 0.00 0.00 0.00 76 1015.3
20260905011622 63 0 0.0 0.0 0.00 0.00 0.00 75 1015.2
20260905004608 65 0 0.0 0.0 0.00 0.00 0.00 71 1015.1